TimeCDT,TemperatureF,Dew PointF,Humidity,Sea Level PressureIn,VisibilityMPH,Wind Direction,Wind SpeedMPH,Gust SpeedMPH,PrecipitationIn,Events,Conditions,WindDirDegrees,DateUTC
12:54 AM,52.0,42.1,69,30.10,10.0,NNW,9.2,-,N/A,,Clear,340,2012-09-09 05:54:00
1:54 AM,54.0,42.1,64,30.10,10.0,North,10.4,-,N/A,,Clear,350,2012-09-09 06:54:00
2:54 AM,50.0,42.1,74,30.11,10.0,North,5.8,-,N/A,,Clear,350,2012-09-09 07:54:00
3:54 AM,48.0,42.1,80,30.13,10.0,NNW,6.9,-,N/A,,Clear,330,2012-09-09 08:54:00
4:54 AM,46.9,42.1,83,30.14,10.0,NNW,3.5,-,N/A,,Clear,330,2012-09-09 09:54:00
5:54 AM,46.0,41.0,83,30.16,9.0,NNW,6.9,-,N/A,,Clear,340,2012-09-09 10:54:00
6:54 AM,45.0,39.9,82,30.19,10.0,North,5.8,-,N/A,,Clear,350,2012-09-09 11:54:00
7:54 AM,48.9,45.0,86,30.21,10.0,Calm,Calm,-,N/A,,Clear,0,2012-09-09 12:54:00
8:54 AM,57.0,45.0,64,30.22,10.0,North,9.2,-,N/A,,Clear,350,2012-09-09 13:54:00
9:54 AM,63.0,46.9,56,30.23,10.0,North,4.6,-,N/A,,Clear,10,2012-09-09 14:54:00
10:54 AM,64.9,46.9,52,30.24,10.0,Variable,4.6,-,N/A,,Clear,0,2012-09-09 15:54:00
11:54 AM,69.1,46.0,44,30.23,10.0,Calm,Calm,-,N/A,,Clear,0,2012-09-09 16:54:00
12:54 PM,71.1,45.0,39,30.22,10.0,North,8.1,-,N/A,,Clear,350,2012-09-09 17:54:00
1:54 PM,72.0,45.0,38,30.19,10.0,Variable,5.8,-,N/A,,Clear,0,2012-09-09 18:54:00
2:54 PM,75.0,44.1,33,30.17,10.0,Variable,4.6,-,N/A,,Clear,0,2012-09-09 19:54:00
5:54 PM,75.9,43.0,31,30.11,10.0,SE,5.8,-,N/A,,Clear,130,2012-09-09 22:54:00
6:54 PM,75.0,44.1,33,30.10,10.0,ESE,3.5,-,N/A,,Clear,120,2012-09-09 23:54:00
7:54 PM,69.1,44.1,40,30.09,10.0,SSE,3.5,-,N/A,,Clear,160,2012-09-10 00:54:00
8:54 PM,61.0,46.0,58,30.10,10.0,South,3.5,-,N/A,,Clear,170,2012-09-10 01:54:00
9:54 PM,57.0,46.9,69,30.11,10.0,SE,4.6,-,N/A,,Clear,130,2012-09-10 02:54:00
10:54 PM,51.1,45.0,80,30.11,10.0,SW,3.5,-,N/A,,Clear,220,2012-09-10 03:54:00
11:54 PM,48.9,44.1,83,30.11,10.0,South,3.5,-,N/A,,Clear,180,2012-09-10 04:54:00